This is the latest recevied weather packets stored in our database for station/object KT5AL. If no packets are shown the sender has not sent any weather packets the latest 1 day(s).
| Time | Temp. | Humidity | Pressure | Rain* | Wind** | Luminosity | Snow |
|---|---|---|---|---|---|---|---|
| 1778077504 | 10.56° C | 100% | 1018.5 hPa | 0 mm | - | - | - |
| 1778076908 | 10.56° C | 100% | 1018.8 hPa | 0 mm | - | - | - |
| 1778076607 | 11.11° C | 98% | 1018.8 hPa | 0 mm | - | - | - |
| 1778076007 | 11.11° C | 97% | 1018.5 hPa | 0 mm | - | - | - |
| 1778075704 | 11.11° C | 97% | 1017.8 hPa | 0 mm | - | - | - |
| 1778075103 | 11.11° C | 98% | 1017.5 hPa | 0 mm | - | - | - |
| 1778073008 | 10.56° C | 100% | 1017.1 hPa | 0 mm | - | - | - |
| 1778072705 | 10.56° C | 100% | 1017.1 hPa | 0 mm | - | - | - |
| 1778072104 | 10.56° C | 100% | 1017.5 hPa | 0 mm | - | - | - |
| 1778071807 | 10.56° C | 100% | 1017.5 hPa | 0 mm | - | - | - |
| 1778071504 | 10.56° C | 100% | 1017.5 hPa | 0 mm | - | - | - |
| 1778070904 | 10.56° C | 100% | 1017.1 hPa | 0 mm | - | - | - |
| 1778070307 | 10.56° C | 100% | 1017.1 hPa | 0 mm | - | - | - |
| 1778069727 | 10° C | 100% | 1017.1 hPa | 0 mm | - | - | - |
| 1778069404 | 10° C | 100% | 1017.1 hPa | 0 mm | - | - | - |
| 1778069107 | 10° C | 100% | 1017.1 hPa | 0 mm | - | - | - |
| 1778068507 | 10.56° C | 100% | 1017.1 hPa | 0 mm | - | - | - |
| 1778067907 | 10.56° C | 100% | 1016.8 hPa | 0 mm | - | - | - |
| 1778067604 | 10.56° C | 100% | 1016.8 hPa | 0 mm | - | - | - |
| 1778066404 | 10.56° C | 100% | 1015.8 hPa | 0 mm | - | - | - |
| 1778065204 | 11.11° C | 94% | 1015.8 hPa | 0 mm | - | - | - |
| 1778064907 | 11.67° C | 92% | 1015.1 hPa | 0 mm | - | - | - |
| 1778064308 | 11.67° C | 90% | 1015.1 hPa | 0 mm | - | - | - |
| 1778064005 | 11.67° C | 89% | 1015.1 hPa | 0 mm | - | - | - |
| 1778063708 | 11.67° C | 88% | 1015.1 hPa | 0 mm | - | - | - |
* Rain latest hour (hover to see other rain measurements)
** Current wind speed in m/s (hover to see current wind gust speed)